This demonstration page uses our WeatherBlox Daily Observations layout. Learn more.

38.88101, -77.10428

Hourly Observations for January 21, 2016

Temp ( °F °C ) Dew Point ( °F °C ) Humidity (%) Winds ( mph kmh ) Pressure ( in mb ) Visibility ( mi km ) Precip ( " mm )
12:25 am 00:25 Cloudy with Light Snow 26 -3.3 23 -5 88 88 SW 3 6 30.15 1021 9 14.48406 0 0.0254
12:52 am 00:52 Cloudy with Light Snow 26 -3.3 23 -5 88 88 WSW 5 7 30.14 1021 8 12.87472 0 0.0254
1:52 am 01:52 Mostly Clear 26 -3.3 21 -6.1 81 81 NW 9 15 30.16 1021 10 16.0934 0 0.0254
2:52 am 02:52 Clear 26 -3.3 16 -8.9 66 66 NW 14 22 30.17 1022 10 16.0934 0 0
3:52 am 03:52 Clear 25 -3.9 15 -9.4 66 66 WNW 9 15 30.2 1023 10 16.0934 0 0
4:52 am 04:52 Mostly Clear 25 -3.9 14 -10 63 63 NW 15 24 30.21 1023 10 16.0934 0 0
5:52 am 05:52 Clear 25 -3.9 14 -10 63 63 NW 10 17 30.24 1024 10 16.0934 0 0
6:52 am 06:52 Mostly Clear 24 -4.4 13 -10.6 62 62 WNW 13 20 30.27 1025 10 16.0934 0 0
7:52 am 07:52 Mostly Sunny 24 -4.4 13 -10.6 62 62 WNW 9 15 30.29 1026 10 16.0934 0 0
8:52 am 08:52 Mostly Sunny 26 -3.3 14 -10 60 60 WNW 14 22 30.33 1027 10 16.0934 0 0
9:52 am 09:52 Partly Cloudy 27 -2.8 15 -9.4 61 61 NW 15 24 30.33 1027 10 16.0934 0 0
10:52 am 10:52 Mostly Cloudy 29 -1.7 16 -8.9 58 58 NW 14 22 30.33 1027 10 16.0934 0 0
11:52 am 11:52 Cloudy 31 -0.6 17 -8.3 56 56 NW 9 15 30.32 1027 10 16.0934 0 0
12:52 pm 12:52 Cloudy 34 1.1 17 -8.3 50 50 WNW 18 30 30.3 1026 10 16.0934 0 0
1:52 pm 13:52 Cloudy 33 0.6 15 -9.4 47 47 NW 16 26 30.28 1025 10 16.0934 0 0
2:52 pm 14:52 Cloudy 33 0.6 13 -10.6 43 43 NW 15 24 30.27 1025 10 16.0934 0 0
3:52 pm 15:52 Mostly Cloudy 33 0.6 13 -10.6 43 43 NNW 12 19 30.26 1025 10 16.0934 0 0
4:52 pm 16:52 Partly Cloudy 32 0 12 -11.1 43 43 NW 13 20 30.28 1025 10 16.0934 0 0
5:52 pm 17:52 Partly Cloudy 31 -0.6 12 -11.1 45 45 NW 10 17 30.3 1026 10 16.0934 0 0
6:52 pm 18:52 Mostly Cloudy 31 -0.6 12 -11.1 45 45 NW 12 19 30.32 1027 10 16.0934 0 0
7:52 pm 19:52 Mostly Cloudy 29 -1.7 12 -11.1 49 49 NNW 9 15 30.32 1027 10 16.0934 0 0
8:52 pm 20:52 Partly Cloudy 29 -1.7 13 -10.6 51 51 NW 9 15 30.33 1027 10 16.0934 0 0
9:52 pm 21:52 Mostly Clear 28 -2.2 12 -11.1 51 51 NW 13 20 30.33 1027 10 16.0934 0 0
10:52 pm 22:52 Mostly Clear 27 -2.8 12 -11.1 53 53 NW 13 20 30.35 1028 10 16.0934 0 0
11:52 pm 23:52 Mostly Clear 26 -3.3 13 -10.6 57 57 NNW 13 20 30.33 1027 10 16.0934 0 0

Powered by AerisWeather